Probability
0 0 0 0 0 0 0 0 0 0 0 0 0 0 0 0 0 0 0 0 0 0 0 0 0 0 0 0 0 0 0 0 0 0 0 0 0 0 0 0 0 0 0
0 0 0 0 0 0 0 0 0 0 0 0 0 0 0 0 0 0 0 0 0 0 0 0 0 0 0 0 0 0 0 0 0 0 0 0 0 0 0 0 0 0 0
0 0 0 0 0 0 0 0 0 0 0 0 0 0 0 0 0 0 0 0 0 0 0 0 0 0 0 0 0 0 0 0 0 0 0 0 0 0 0 0 0 0 0
0 0 0 0 0 0 0 0 0 0 0 0 0 0 0 0 0 0 0 0 0 0 0 0 0 0 0 0 0 0 0 0 0 0 0 0 0 0 0 0 0 0 0
0 0 0 0 0 0 0 0 0 0 0 0 0 0 0 0 0 0 0 0 0 0 0 0 0 0 0 0 0 0 0 0 0 0 0 0 0 0 0 0 0 0 0
0 0 0 0 0 0 0 0 0 0 0 0 0 0 0 0 0 0 0 0 0 0 0 0 0 0 0 0 0 0 0 0 0 0 0 0 0 0 0 0 0 0 0
0 0 0 0 0 0 0 0 0 0 0 0 0 0 0 0 0 0 0 0 0 0 0 0 0 0 0 0 0 0 0 0 0 0 0 0 0 0 0 0 0 0 0
0 0 0 0 0 0 0 0 0 0 0 0 0 0 0 0 0 0 0 0 0 0 0 0 0 0 0 0 0 0 0 0 0 0 0 0 0 0 0 0 0 0 0
0 0 0 0 0 0 0 0 0 0 0 0 0 0 0 0 0 0 0 0 0 0 0 0 0 0 0 0 0 0 0 0 0 0 0 0 0 0 0 0 0 0 0
0 0 0 0 0 0 0 0 0 0 0 0 0 0 0 0 0 0 0 0 0 0 0 0 0 0 0 0 0 0 0 0 0 0 0 0 0 0 0 0 0 0 0
0 0 0 0 0 0 0 0 0 0 0 0 0 0 0 0 0 0 0 0 0 0 0 0 0 0 0 0 0 0 0 0 0 0 0 0 0 0 0 0 0 0 0
0 0 0 0 0 0 0 0 0 0 0 0 0 0 0 0 0 0 0 0 0 0 0 0 0 0 0 0 0 0 0 0 0 0 0 0 0 0 0 0 0 0 0
0 0 0 0 0 0 0 0 0 0 0 0 0 0 0 0 0 0 0 0 0 0 0 0 0 0 0 0 0 0 0 0 0 0 0 0 0 0 0 0 0 0 0
0 0 0 0 0 0 0 0 0 0 0 0 0 0 0 0 0 0 0 0 0 0 0 0 0 0 0 0 0 0 0 0 0 0 0 0 0 0 0 0 0 0 0
0 0 0 0 0 0 0 0 0 0 0 0 0 0 0 0 0 0 0 0 0 0 0 0 0 0 0 0 0 0 0 0 0 0 0 0 0 0 0 0 0 0 0
0 0 0 0 0 0 0 0 0 0 0 0 0 0 0 0 0 0 0 0 0 0 0 0 0 0 0 0 0 0 0 0 0 0 0 0 0 0 0 0 0 0 0
0 0 0 0 0 0 0 0 0 0 0 0 0 0 0 0 0 0 0 0 0 0 0 0 0 0 0 0 0 0 0 0 0 0 0 0 0 0 0 0 0 0 0
0 0 0 0 0 0 0 0 0 0 0 0 0 0 0 0 0 0 0 0 0 0 0 0 0 0 0 0 0 0 0 0 0 0 0 0 0 0 0 0 0 0 0
0 0 0 0 0 0 0 0 0 0 0 0 0 0 0 0 0 0 0 0 0 0 0 0 0 0 0 0 0 0 0 0 0 0 0 0 0 0 0 0 0 0 0
0 0 0 0 0 0 0 0 0 0 0 0 0 0 0 0 0 0 0 0 0 0 0 0 0 0 0 0 0 0 0 0 0 0 0 0 0 0 0 0 0 0 0
0 0 0 0 0 0 0 0 0 0 0 0 0 0 0 0 0 0 0 0 0 0 0 0 0 0 0 0 0 0 0 0 0 0 0 0 0 0 0 0 0 0 0
0 0 0 0 0 0 0 0 0 0 0 0 0 0 0 0 0 0 0 0 0 0 0 0 0 0 0 0 0 0 0 0 0 0 0 0 0 0 0 0 0 0 0
0 0 0 0 0 0 0 0 0 0 0 0 0 0 0 0 0 0 0 0 0 0 0 0 0 0 0 0 0 0 0 0 0 0 0 0 0 0 0 0 0 0 0
0 0 0 0 0 0 0 0 0 0 0 0 0 0 0 0 0 0 0 0 0 0 0 0 0 0 0 0 0 0 0 0 0 0 0 0 0 0 0 0 0 0 0
0 0 0 0 0 0 0 0 0 0 0 0 0 0 0 0 0 0 0 0 0 0 0 0 0 0 0 0 0 0 0 0 0 0 0 0 0 0 0 0 0 0 0
0 0 0 0 0 0 0 0 0 0 0 0 0 0 0 0 0 0 0 0 0 0 0 0 0 0 0 0 0 0 0 0 0 0 0 0 0 0 0 0 0 0 0
Height
5775 5777 5779 5781 5782 5784 5785 5785 5787 5788 5788 5788 5789 5789 5789 5789 5789 5788 5788 5788 5787 5786 5786 5785 5784 5782 5781 5779 5778 5776 5774 5772 5770 5769 5767 5766 5765 5764 5763 5761 5760 5759 5758
5770 5772 5774 5775 5777 5778 5779 5779 5780 5781 5782 5782 5782 5782 5782 5782 5782 5781 5781 5781 5780 5779 5777 5777 5776 5774 5773 5771 5769 5767 5765 5763 5761 5760 5758 5757 5756 5753 5752 5751 5750 5749 5748
5766 5767 5768 5769 5770 5771 5772 5773 5774 5774 5775 5775 5775 5775 5775 5775 5775 5774 5773 5773 5772 5771 5769 5768 5767 5766 5765 5763 5761 5759 5757 5755 5752 5750 5749 5747 5746 5744 5743 5741 5739 5738 5737
5760 5761 5762 5763 5764 5765 5765 5766 5767 5767 5767 5767 5767 5768 5767 5767 5767 5767 5766 5765 5764 5763 5762 5761 5759 5758 5756 5754 5752 5750 5748 5746 5743 5741 5739 5738 5736 5734 5733 5732 5729 5728 5727
5754 5755 5756 5757 5757 5757 5758 5758 5759 5759 5759 5759 5759 5759 5759 5759 5759 5758 5758 5757 5756 5755 5753 5752 5751 5749 5747 5745 5743 5741 5739 5736 5734 5732 5730 5728 5726 5724 5723 5722 5720 5718 5717
5747 5748 5749 5750 5750 5750 5751 5751 5751 5751 5751 5751 5751 5751 5751 5751 5751 5750 5749 5748 5747 5746 5745 5744 5742 5741 5739 5737 5735 5732 5730 5727 5725 5723 5720 5718 5716 5715 5713 5712 5711 5709 5707
5741 5742 5742 5743 5743 5743 5743 5743 5743 5743 5743 5743 5743 5743 5742 5742 5742 5742 5741 5740 5739 5738 5737 5735 5734 5732 5730 5728 5726 5723 5721 5718 5715 5713 5711 5708 5707 5705 5703 5702 5700 5699 5698
5735 5735 5736 5736 5736 5736 5736 5735 5735 5735 5735 5735 5734 5734 5734 5734 5733 5733 5732 5732 5731 5729 5728 5726 5725 5723 5721 5719 5717 5714 5711 5708 5706 5704 5701 5699 5697 5695 5693 5692 5690 5689 5688
5729 5729 5729 5729 5729 5729 5728 5728 5727 5727 5726 5726 5726 5726 5725 5725 5725 5724 5724 5723 5721 5720 5719 5717 5716 5714 5712 5710 5707 5705 5702 5699 5697 5694 5692 5690 5687 5685 5683 5681 5680 5678 5677
5723 5723 5722 5722 5722 5721 5720 5720 5719 5719 5718 5718 5717 5717 5716 5716 5715 5715 5714 5713 5712 5711 5709 5708 5706 5704 5702 5700 5698 5695 5692 5690 5688 5685 5682 5680 5678 5675 5673 5671 5669 5667 5666
5716 5716 5715 5715 5714 5713 5713 5712 5711 5710 5710 5709 5708 5708 5707 5707 5706 5705 5704 5703 5702 5701 5699 5698 5696 5694 5692 5690 5688 5685 5682 5680 5678 5675 5673 5670 5667 5665 5663 5660 5658 5656 5654
5709 5708 5707 5707 5706 5705 5704 5703 5703 5702 5701 5700 5699 5699 5698 5697 5696 5696 5694 5693 5692 5690 5689 5687 5685 5684 5682 5679 5677 5674 5672 5670 5667 5665 5662 5660 5657 5655 5652 5650 5647 5645 5643
5702 5701 5700 5699 5698 5697 5696 5695 5694 5693 5693 5692 5691 5689 5688 5688 5687 5686 5684 5683 5682 5680 5678 5677 5675 5673 5671 5668 5666 5663 5661 5658 5656 5653 5651 5648 5646 5643 5641 5638 5636 5634 5632
5694 5693 5692 5691 5690 5689 5688 5686 5686 5685 5684 5683 5681 5680 5679 5678 5677 5675 5674 5673 5671 5670 5668 5666 5664 5662 5659 5657 5654 5652 5649 5647 5644 5642 5639 5637 5634 5632 5629 5627 5624 5622 5620
5686 5685 5683 5682 5681 5680 5678 5677 5676 5675 5674 5673 5672 5670 5669 5668 5666 5665 5663 5662 5660 5659 5657 5655 5653 5650 5648 5646 5643 5640 5638 5635 5633 5630 5628 5625 5622 5620 5617 5615 5613 5610 5608
5678 5676 5675 5673 5672 5670 5669 5668 5666 5665 5664 5663 5661 5660 5659 5657 5656 5654 5652 5651 5649 5648 5646 5644 5641 5639 5636 5634 5631 5628 5626 5623 5621 5618 5616 5613 5611 5608 5606 5604 5601 5599 5597
5669 5667 5666 5664 5662 5661 5659 5658 5656 5655 5654 5652 5651 5649 5647 5646 5644 5643 5641 5640 5638 5636 5634 5632 5629 5627 5624 5622 5619 5616 5614 5611 5609 5606 5604 5601 5599 5597 5595 5592 5590 5588 5585
5659 5658 5656 5654 5652 5650 5649 5647 5646 5644 5643 5641 5639 5638 5636 5634 5633 5631 5629 5628 5626 5624 5622 5620 5617 5615 5612 5609 5606 5604 5601 5599 5597 5594 5592 5590 5588 5585 5583 5581 5579 5576 5574
5649 5647 5645 5643 5641 5639 5638 5636 5634 5633 5631 5629 5627 5626 5624 5622 5621 5619 5617 5616 5614 5612 5610 5607 5605 5602 5600 5597 5594 5591 5589 5587 5584 5582 5580 5578 5576 5574 5572 5570 5567 5565 5562
5637 5635 5634 5632 5630 5628 5626 5624 5622 5621 5619 5617 5615 5613 5611 5610 5608 5606 5605 5603 5601 5599 5597 5595 5592 5590 5587 5584 5582 5579 5577 5575 5572 5570 5568 5566 5564 5562 5559 5558 5556 5554 5552
5625 5623 5621 5619 5617 5615 5613 5611 5609 5608 5606 5604 5602 5600 5598 5597 5595 5593 5592 5590 5588 5587 5585 5582 5580 5577 5574 5571 5569 5567 5564 5562 5560 5558 5556 5554 5552 5550 5548 5546 5545 5543 5540
5613 5610 5608 5606 5604 5602 5600 5598 5596 5594 5593 5591 5589 5587 5585 5583 5582 5580 5578 5577 5575 5573 5571 5569 5566 5564 5561 5559 5556 5554 5552 5550 5548 5546 5544 5542 5540 5538 5536 5535 5533 5531 5529
5599 5597 5595 5593 5591 5588 5586 5585 5583 5581 5579 5577 5576 5574 5572 5570 5568 5567 5565 5563 5561 5560 5557 5555 5553 5551 5548 5546 5544 5542 5540 5538 5536 5534 5532 5530 5528 5527 5525 5524 5522 5520 5518
5585 5583 5581 5579 5577 5575 5573 5571 5569 5567 5565 5564 5562 5560 5558 5557 5555 5553 5551 5549 5547 5545 5543 5542 5540 5538 5536 5533 5531 5529 5527 5526 5524 5522 5521 5519 5517 5516 5514 5513 5511 5509 5507
5572 5569 5567 5565 5564 5561 5559 5557 5554 5552 5551 5549 5548 5546 5544 5542 5541 5539 5537 5535 5533 5531 5530 5528 5527 5525 5524 5521 5519 5517 5516 5514 5513 5511 5510 5508 5506 5505 5503 5502 5500 5498 5497
5558 5555 5553 5551 5549 5547 5545 5542 5540 5538 5536 5535 5533 5531 5530 5528 5526 5525 5523 5521 5520 5518 5516 5515 5513 5512 5511 5509 5507 5506 5504 5502 5501 5500 5499 5497 5495 5494 5492 5491 5490 5488 5486
Wind_Speed
24 24 25 26 27 28 28 29 29 29 30 30 30 30 31 31 30 30 31 31 31 32 32 32 32 32 33 34 34 35 35 35 36 37 37 38 39 39 40 40 40 41 41
24 24 25 26 27 28 28 29 30 30 30 31 32 31 31 31 32 32 32 33 33 32 32 31 32 32 33 34 34 35 35 36 36 37 37 37 38 39 40 40 40 40 41
25 26 26 26 27 28 29 29 30 31 31 32 32 32 32 32 33 33 32 32 33 33 33 33 32 33 33 34 35 35 36 36 37 37 37 38 38 39 39 41 41 41 42
25 26 27 28 28 29 30 31 31 31 32 32 33 33 33 33 33 33 34 34 33 33 33 34 33 34 34 35 35 36 37 37 37 38 38 39 39 39 39 40 41 41 41
26 27 28 29 29 30 30 31 32 32 33 34 34 34 34 34 34 34 35 34 34 35 34 34 34 34 35 36 37 38 38 38 38 38 39 39 39 39 39 39 40 40 40
27 28 29 30 30 30 31 31 32 33 33 34 34 34 35 35 35 34 34 35 35 36 36 36 35 35 35 36 37 38 39 39 39 40 39 39 39 38 38 38 38 38 38
26 27 28 29 29 30 30 31 31 32 33 34 34 35 35 35 35 35 35 35 36 36 36 37 37 37 37 38 39 39 39 39 39 39 39 39 39 39 39 38 38 38 38
24 25 27 28 29 29 30 31 32 32 33 34 35 35 35 35 35 36 36 36 36 37 37 37 38 39 40 40 39 39 40 39 39 38 38 38 39 39 40 39 39 39 38
23 25 26 28 29 30 31 31 32 33 34 34 35 35 35 36 36 37 37 37 38 38 38 38 39 39 40 40 40 40 39 39 38 38 38 39 38 39 39 39 39 39 39
24 25 26 27 29 30 31 32 33 34 34 35 35 35 36 36 37 37 38 38 39 39 40 40 40 40 40 40 40 40 39 38 38 38 38 38 38 39 39 39 38 39 39
24 25 27 28 29 30 31 31 32 33 34 35 35 36 36 36 37 37 38 38 39 40 40 41 41 40 40 41 40 40 39 39 39 39 39 39 39 39 39 40 39 39 40
25 26 28 29 30 31 31 32 32 32 33 34 34 35 35 36 36 37 38 38 39 39 40 40 40 41 41 41 41 41 41 41 41 41 41 41 41 41 41 41 41 41 41
26 27 28 29 30 30 31 32 33 33 33 34 34 34 35 36 36 37 37 38 38 39 39 40 40 41 42 42 42 42 42 42 41 41 42 41 41 41 41 41 41 41 41
27 28 29 30 31 31 32 33 34 34 35 35 35 36 36 36 37 37 38 38 39 39 40 40 41 42 42 42 42 42 42 42 42 42 42 41 41 41 41 41 40 41 41
28 29 30 31 32 33 33 34 35 35 36 36 37 37 37 38 38 39 39 40 40 40 41 41 42 42 42 42 42 42 42 42 42 42 42 41 41 41 41 40 40 40 41
30 30 31 31 32 33 34 35 36 37 37 38 38 39 39 39 39 40 40 40 41 41 42 42 42 42 42 42 42 42 42 42 42 42 42 42 41 40 40 40 40 40 40
32 32 32 33 34 35 35 36 37 38 39 39 39 40 40 40 40 41 41 41 41 41 42 43 43 43 43 43 43 43 43 43 42 42 41 41 41 41 40 41 40 40 40
34 34 34 34 35 36 37 37 38 39 39 40 41 41 41 41 41 41 41 41 42 42 43 43 44 44 44 44 44 43 43 43 43 42 42 41 41 40 41 41 40 40 40
36 36 37 37 38 39 39 40 40 41 41 41 42 42 42 42 42 42 42 42 42 43 43 44 44 45 44 44 44 43 43 43 43 43 42 42 41 41 40 40 40 40 40
38 38 39 39 40 41 41 42 42 43 43 43 43 42 43 43 43 43 43 43 44 44 44 44 45 44 44 44 44 43 43 43 42 41 41 41 41 40 40 39 39 39 40
40 41 41 41 42 42 43 43 43 42 43 43 43 43 43 43 43 43 43 44 44 45 45 45 44 44 44 44 43 43 42 42 41 40 40 40 40 40 40 39 39 39 39
42 43 43 43 43 44 43 43 42 43 43 43 43 43 43 43 43 44 44 44 44 45 45 44 44 44 43 43 42 42 42 41 40 40 40 40 40 40 39 39 39 39 39
43 43 43 42 43 43 43 43 43 44 44 44 44 44 44 44 44 44 44 45 45 45 45 44 43 43 43 42 42 41 41 40 40 40 40 40 40 39 39 39 39 39 39
44 44 43 43 44 44 45 45 45 45 45 45 45 45 45 45 45 45 45 45 45 45 44 43 43 43 42 41 41 41 40 40 39 39 39 39 39 39 38 38 38 39 39
45 45 45 45 45 46 46 46 46 46 46 46 46 46 46 46 46 46 45 45 45 45 43 43 42 42 41 41 41 40 40 39 38 38 38 38 38 38 38 38 38 38 38
45 45 46 46 46 46 46 46 46 46 46 46 45 46 46 46 45 45 44 44 43 43 42 42 42 41 41 41 40 39 39 39 38 38 38 38 38 37 36 37 37 36 36
Wind_Direction
237 240 243 245 246 249 252 255 255 257 260 262 263 264 265 266 267 269 271 272 274 274 275 277 279 280 280 281 282 282 282 282 281 281 280 279 278 277 275 276 275 273 272
240 242 245 248 249 252 255 258 259 260 261 262 262 264 265 266 267 270 272 272 273 275 276 276 277 279 281 282 283 284 283 283 283 283 281 280 279 277 275 276 276 275 274
242 245 247 250 253 254 256 258 260 261 261 261 262 263 265 267 268 271 272 273 273 273 274 275 277 278 280 281 283 284 284 285 284 283 283 282 280 277 276 276 275 276 276
246 247 249 252 254 255 256 258 260 260 260 260 262 263 265 267 269 271 272 273 273 273 274 275 277 278 281 282 283 283 284 285 285 285 284 283 281 279 278 277 277 276 276
249 250 252 253 255 257 259 259 260 259 260 261 262 264 265 267 269 271 272 273 274 275 276 277 279 281 282 283 284 284 284 285 285 285 285 284 282 281 280 279 278 277 278
250 251 252 254 257 258 260 260 260 260 261 262 263 264 266 267 269 271 273 274 275 276 277 278 279 281 283 284 285 285 284 285 285 285 285 284 283 282 282 281 280 279 278
251 251 253 254 257 259 262 263 264 265 264 264 265 266 266 267 268 270 272 274 275 277 279 280 280 281 283 285 285 285 285 286 285 286 286 285 283 282 282 282 282 280 278
254 254 254 255 258 262 265 266 267 266 265 265 266 267 268 268 269 270 272 274 276 277 279 280 281 282 283 285 286 286 286 286 286 286 287 286 285 283 282 282 281 280 280
258 259 259 259 261 263 266 267 267 267 266 267 267 268 268 269 270 271 272 274 276 277 278 280 282 283 284 285 286 286 286 286 286 286 287 286 286 284 283 283 282 280 279
264 264 263 263 263 264 267 267 267 268 268 268 269 269 270 270 271 272 274 276 277 278 279 281 282 284 284 285 286 286 286 285 286 287 287 286 286 285 283 282 281 281 280
267 267 266 266 266 267 268 269 270 269 270 270 270 270 271 271 272 273 275 276 278 279 280 282 283 283 284 285 286 285 285 285 285 286 286 286 285 284 283 282 281 281 281
268 268 269 269 269 269 269 270 270 271 271 272 272 272 272 272 273 274 276 277 278 280 281 282 283 284 285 286 286 285 285 284 285 285 286 286 285 284 283 282 281 280 280
270 269 269 270 270 270 270 270 271 272 272 274 275 275 275 275 275 276 277 278 279 280 281 282 284 285 285 286 286 285 284 284 284 285 285 285 284 285 284 283 282 280 280
271 271 270 271 271 271 271 272 272 273 274 275 276 276 277 277 277 277 278 279 279 280 281 282 283 284 286 286 286 285 285 284 284 285 284 283 283 283 283 283 282 281 281
275 274 273 272 272 272 272 272 273 273 274 275 276 276 277 277 278 278 279 279 280 280 281 282 283 285 286 286 285 285 285 285 284 284 283 283 283 283 282 282 282 281 281
277 276 276 275 274 274 274 273 274 274 274 275 276 276 277 278 279 279 279 279 279 280 281 282 283 284 285 285 285 285 284 284 284 283 282 282 282 281 281 282 282 282 282
277 277 277 277 277 277 276 276 276 276 276 277 277 277 278 278 278 279 279 279 279 279 281 282 284 284 285 285 284 284 284 284 284 284 283 282 281 280 280 281 281 282 282
277 277 278 278 278 278 278 278 278 278 278 278 278 277 278 278 278 278 279 278 279 280 281 283 284 285 286 285 285 284 283 284 284 283 283 282 281 280 280 281 282 282 283
278 278 278 278 279 279 278 278 279 279 279 279 278 278 278 278 278 278 278 278 279 280 282 283 284 285 285 285 285 284 283 283 284 283 282 281 281 280 280 281 281 282 282
278 279 279 280 280 281 281 280 279 279 279 279 278 278 278 278 278 278 278 278 279 281 282 283 284 285 285 284 284 283 283 283 283 282 281 281 280 280 280 280 281 282 283
280 281 281 281 281 282 282 281 280 279 279 279 279 279 279 278 278 278 278 278 280 281 283 283 284 284 284 284 283 282 282 283 282 281 281 280 280 279 279 279 280 282 283
281 281 282 281 281 282 281 280 280 279 279 279 279 279 278 278 278 278 279 279 280 281 282 283 283 283 283 283 283 282 282 281 281 281 280 280 279 279 279 279 280 282 283
282 282 282 282 282 281 281 281 280 280 279 279 279 279 278 279 279 278 279 279 280 281 282 282 282 282 282 282 281 281 281 280 281 280 280 279 279 279 279 279 281 282 283
282 282 282 282 282 282 281 281 281 280 279 278 279 278 278 278 278 279 279 279 280 280 280 280 280 280 281 280 280 280 280 280 280 280 280 280 279 279 278 279 281 282 283
282 282 282 282 282 282 282 281 280 279 279 278 278 278 278 278 278 279 279 279 279 279 279 279 279 279 279 279 280 280 279 279 279 279 280 279 279 278 279 280 281 282 284
283 283 282 282 282 282 282 281 280 280 279 278 278 278 278 278 278 278 279 279 279 279 279 280 279 278 278 279 279 279 279 279 279 279 280 279 278 278 279 280 282 283 284